Wind_Speed
9 7 4 5 5 4 4 3 3 4 4 5 5 6 6 5 6 7 8 9 10 11 10 9 9 8 8 8 8 7 7 7
8 7 6 4 4 5 5 4 4 4 6 7 8 6 11 9 7 10 10 10 11 11 11 10 9 8 8 7 6 3 7 8
6 6 5 4 5 6 5 7 7 7 6 10 6 4 6 6 7 10 11 12 13 13 14 14 10 6 8 11 7 6 6 8
8 5 4 3 3 2 2 2 3 3 5 5 6 7 6 9 6 14 11 14 15 10 14 14 11 11 12 9 9 8 9 7
9 6 3 1 4 3 2 3 3 3 4 7 8 8 7 9 10 9 11 13 11 13 12 11 11 11 10 11 11 11 11 10
8 6 3 1 0 1 2 2 3 4 6 6 8 9 9 10 11 13 13 13 13 13 13 12 12 11 10 10 9 9 10 9
9 7 5 2 0 1 2 2 2 3 4 5 6 7 9 10 11 12 12 13 13 14 14 14 13 12 11 12 11 11 10 10
10 9 6 4 3 2 1 1 2 3 4 5 5 6 8 9 11 12 13 13 13 15 15 16 15 14 14 13 13 13 12 12
12 9 8 5 5 4 1 1 2 3 3 3 4 5 8 10 13 14 15 16 17 17 17 18 17 17 18 16 16 16 15 14
9 10 10 7 6 5 2 1 3 4 3 5 5 6 8 11 14 15 16 17 19 20 20 21 21 21 20 20 20 19 18 17
10 11 11 8 7 5 3 3 5 5 5 6 5 7 8 10 13 17 18 20 22 22 23 22 23 24 25 25 24 23 22 22
11 11 8 6 5 5 6 5 5 6 6 4 6 7 9 12 14 16 18 20 22 22 22 25 26 27 29 30 28 27 25 25
7 10 4 4 5 5 6 8 8 7 7 7 10 10 12 13 15 15 17 19 21 23 25 25 25 25 26 26 28 31 31 29
8 7 3 1 1 4 4 5 6 8 7 12 12 13 15 16 15 17 18 20 22 23 23 25 25 24 24 24 14 23 29 32
9 9 8 9 5 5 8 8 9 13 16 17 17 20 20 19 18 19 20 20 22 22 23 24 25 26 25 23 14 14 14 27
9 8 6 8 10 8 10 10 13 13 15 18 20 20 20 21 21 20 19 21 21 22 21 22 24 26 25 27 30 30 15 15
6 5 6 6 5 6 8 12 17 22 21 17 19 19 20 21 22 22 22 20 18 18 18 17 18 21 21 21 22 23 21 7
4 5 5 5 6 8 13 13 11 16 17 19 18 21 22 22 23 20 19 18 15 16 15 15 9 14 14 13 11 8 13 9
6 10 12 10 13 12 12 13 15 16 19 19 23 24 23 22 19 17 16 16 17 14 11 9 8 8 12 14 9 8 8 8
11 13 14 14 13 16 16 15 16 17 18 21 21 21 22 20 18 18 19 15 13 11 9 9 10 11 10 13 11 11 8 7
Wind_Direction
126 126 121 89 77 70 55 48 45 33 30 29 28 19 11 13 4 1 2 1 359 354 348 348 343 337 331 329 333 333 291 318
136 136 121 117 97 49 41 30 29 28 19 18 19 25 18 10 27 357 353 351 348 346 346 346 341 334 335 322 321 296 293 291
143 130 98 83 81 56 38 33 32 27 20 6 5 345 342 354 326 340 347 348 345 346 347 345 343 321 329 341 320 290 301 286
148 139 121 114 84 67 77 19 34 17 12 354 343 351 332 339 316 338 348 343 335 339 339 342 333 319 309 318 303 307 293 287
161 145 120 71 67 28 10 358 4 4 3 355 340 335 339 326 328 322 325 317 323 322 316 317 319 312 307 300 296 289 284 284
162 142 145 145 353 32 24 338 10 358 0 349 344 335 337 337 329 326 319 321 319 316 314 313 308 305 297 288 283 283 283 281
170 167 183 174 181 24 352 342 17 3 9 7 355 345 342 336 332 324 322 319 317 316 312 310 306 298 290 288 284 279 275 270
184 194 193 191 199 188 205 74 15 4 16 22 12 352 341 331 325 321 319 318 314 310 307 303 300 293 284 276 272 270 267 263
179 201 182 193 189 189 186 60 347 340 352 359 354 339 323 316 313 314 315 315 311 304 302 297 292 291 289 279 271 265 259 255
193 189 187 193 182 186 222 261 304 298 310 325 321 323 315 309 306 306 307 302 300 300 297 292 290 287 282 279 279 270 262 253
207 178 197 191 183 218 238 254 283 321 315 322 332 317 317 311 307 305 304 299 295 294 293 291 287 284 280 276 267 264 265 257
212 172 198 200 206 230 263 263 281 293 307 325 331 326 329 317 308 302 300 298 296 295 295 291 290 288 284 287 282 276 259 255
180 134 95 216 226 276 296 298 311 307 309 344 332 324 320 311 302 299 298 296 298 296 293 289 284 282 284 272 269 262 260 255
91 103 83 360 63 11 6 338 321 312 312 323 315 320 316 313 313 308 304 300 297 293 290 288 285 281 279 280 280 273 261 245
95 96 84 66 46 25 1 333 322 325 323 319 321 323 318 317 314 309 305 301 298 300 298 295 291 287 282 283 282 273 278 262
93 85 72 54 38 27 2 345 330 326 311 314 315 316 313 316 314 312 309 304 300 299 300 306 297 291 291 283 282 285 279 282
78 62 38 35 30 7 348 331 320 315 311 316 317 314 319 317 315 312 308 302 302 301 304 305 304 300 304 313 313 307 303 332
30 354 339 321 314 316 312 316 317 310 317 321 319 318 316 314 313 309 302 299 305 309 305 315 336 321 313 321 336 347 344 338
328 316 311 315 329 327 330 326 322 319 323 325 323 319 318 317 314 309 307 304 305 317 333 337 0 346 359 312 310 323 316 313
317 319 315 317 324 327 325 323 324 326 329 326 320 319 319 321 315 313 313 322 328 334 330 337 340 323 327 315 317 299 279 279
Height
824 826 827 827 828 830 832 833 833 833 833 833 833 833 833 833 832 832 831 830 829 829 829 827 826 826 825 823 822 820 818 817
825 826 826 828 829 829 832 833 833 833 834 834 834 834 834 834 834 832 832 831 830 830 829 827 826 825 824 823 822 820 818 817
826 828 829 831 830 830 832 834 835 834 835 835 835 835 836 836 834 834 832 831 830 830 828 827 825 823 822 822 820 818 818 816
826 828 829 830 829 831 833 835 835 836 836 836 835 837 836 836 833 832 830 830 829 828 827 825 824 824 822 821 820 818 818 816
825 827 831 830 830 831 832 834 836 835 835 836 837 836 834 834 834 832 832 830 829 828 827 825 824 824 822 821 820 818 816 814
825 826 830 830 829 830 833 834 835 834 834 835 836 835 834 834 833 833 832 830 829 828 826 824 823 822 821 819 818 816 814 813
821 826 829 830 831 833 835 836 835 834 833 834 835 835 835 834 834 833 831 829 827 826 824 822 820 819 818 817 816 815 813 811
819 823 828 830 831 833 835 835 835 835 833 834 834 835 834 834 833 832 829 827 826 824 822 820 818 816 815 814 813 811 809 809
816 821 827 829 831 833 834 834 835 834 833 834 833 834 834 833 832 831 829 827 825 822 820 818 816 815 812 810 809 808 806 805
814 820 825 828 830 832 832 832 833 832 832 832 833 832 832 831 830 828 826 824 822 819 817 814 812 810 808 807 805 803 802 801
814 819 824 826 829 831 832 832 832 830 831 831 831 831 830 829 827 825 824 822 819 816 813 811 807 805 802 800 798 796 795 794
813 818 823 826 827 830 830 830 830 830 829 829 830 829 829 827 825 823 821 819 816 813 810 807 805 802 798 794 792 790 788 788
814 819 825 826 828 829 828 829 829 829 830 830 830 828 826 824 821 819 816 814 811 809 807 803 800 797 793 788 784 782 781 781
821 825 828 829 829 831 831 831 831 831 829 829 828 827 825 822 819 816 813 810 808 806 804 799 795 794 789 784 777 773 771 767
826 829 831 832 832 832 831 830 829 828 828 828 827 826 823 819 816 815 812 809 806 804 802 799 793 789 788 784 778 767 764 761
830 832 833 833 833 833 833 832 831 830 828 826 824 823 820 817 814 812 810 807 803 800 798 796 793 786 784 781 775 770 765 761
832 833 833 833 832 833 832 832 832 829 825 820 820 819 817 814 811 809 807 803 800 798 795 793 791 787 781 778 774 769 767 767
833 832 832 832 832 830 829 826 824 826 823 819 818 817 814 811 809 806 803 800 798 796 793 791 789 791 788 785 783 780 778 777
832 831 830 829 830 829 827 826 825 824 822 820 819 815 812 809 806 803 801 798 796 794 792 791 791 789 787 786 784 782 781 781
831 830 828 826 826 826 825 825 824 823 822 822 819 815 811 807 805 802 799 797 796 795 793 791 791 790 787 788 784 782 779 778